Simultaneous Nadir Overpasses (SNOs) Predictions

Prediction of SNOs between GOES-14 and NPP Satellite Orbit:

Table of predicted SNOs for the next 14.0 days since TLE Epoch: 4/30/2022
Index Date Time (GOES-14) GOES-14 Lat,Lon NPP Lat,Lon Distance(km) Time Diff (sec)
1 05/01/2022 08:23:52 0.11,-104.45 0.24,-104.96 58.13 80
2 05/02/2022 08:07:47 0.11,-104.46 -0.82,-100.43 459.72 80
3 05/03/2022 20:29:43 -0.09,-104.56 -0.37,-105.73 133.88 80
4 05/04/2022 20:08:17 -0.11,-104.55 0.63,-101.20 382.23 80
5 05/06/2022 08:30:03 0.09,-104.44 0.56,-106.46 230.11 80
6 05/07/2022 08:13:58 0.10,-104.45 -0.45,-101.92 287.66 80
7 05/08/2022 20:35:54 -0.08,-104.57 -0.68,-107.23 303.02 80
8 05/09/2022 20:14:29 -0.10,-104.57 0.33,-102.70 213.34 80
9 05/11/2022 08:36:15 0.07,-104.43 0.85,-107.96 401.63 80
10 05/12/2022 08:20:10 0.08,-104.44 -0.16,-103.42 116.26 80
11 05/13/2022 20:42:06 -0.06,-104.59 -0.96,-108.74 471.63 80
